Showing default

SPIRIT, 58468

Orbit data source: Space-Track

SPIRIT, 58468 is a payload satellite owned by U Melb. (AU) in SSO that was launched on Fri, 01 Dec 2023 UTC via an FALCON 9 launch vehicle from the Air Force Western Test Range (AFWTR). Payload-class satellites include a variety of spacecraft equipped with specific instruments for various scientific and technological missions. These include communications satellites like Starlink; space stations such as the ISS; scientific satellites like the Hubble; Earth observation satellites from companies like Planet Labs, Umbra, and HawkEye 360; GPS; miniature CubeSats for education and research; and military/defense satellites.

Not visible in the next 10 days
Identifier
58468, 2023-185G
Orbit
SSO
Country
Flag of AUAU / AUS
Related business
Manufacturer
U Melb.
Mission
Operational Amateur Astronomy
Bus & Motor
CUBESAT 6U, Unknown motor
Mass
11.5 kg wet, 11.5 kg dry
Launch date (UTC)
2023-12-01 (3 years ago)
Launch vehicle
FALCON 9
Launch site
Air Force Western Test Range (AFWTR)
Object type
Payload
Rocket body
Debris
Shape & HBR
Box, 0.2 m
Radar Cross Section
0.080 m², Medium (>0.1 m² and < 1m²)

Expand to show TLE details & history
Last TLE update: 8 hours ago

TLE from 8 hours ago
0 SPIRIT
1 58468U 23185G   26208.17810118  .01105805  81140-3  95264-3 0  9991
2 58468  97.3137 296.6694 0008965 248.3605 111.6726 16.13481527148950
Epoch: 2026-07-27T04:16Z
TLE epoch observation values (Epoch: 2026-07-27T04:16:27.941Z)
Latitude
-0.00006°
Longitude
-72.31242°
Altitude
242.724 km
Speed
7.76 km/s
True Right ascension
19h 46m 40s
True Declination
0° 00' 00"
Sunlit
Object was in full shadow at epoch
Visualization orbit readout
Latitude
Unknown
Longitude
Unknown
Altitude
Unknown
Speed
Unknown
Apparent Right ascension
Unknown
Apparent Declination
Unknown
Sunlit
N/A
Visualization observer readout
Local Sidereal Time
01:10:56
Azimuth
Unknown
Elevation
Unknown
Doppler factor
Unknown
Orbital elements
Apogee altitude
240.076 km
Perigee altitude
228.22 km
Semi-major axis
6,612.285 km
Eccentricity
0.0009
Inclination
97.3137°
RAAN
296.6694°
Arg. of periapsis
248.3605°
True anomaly
111.76803°
Mean anomaly
111.6726°
Eccentric anomaly
111.72032°
Mean motion
4.0366 °/min
Orbital period
89.18 mins
BSTAR
0.00095264
Loading maneuver chart data...
Computing Atmospheric mass density...
Loading historical data...
Loading historical data...
Loading historical data...
Loading historical data...
Loading historical data...
Loading historical data...
Loading historical data...

Documentation

Showing up to 5 results
|